Date,TemperatureHighF,TemperatureAvgF,TemperatureLowF,DewpointHighF,DewpointAvgF,DewpointLowF,HumidityHigh,HumidityAvg,HumidityLow,PressureMaxIn,PressureMinIn,WindSpeedMaxMPH,WindSpeedAvgMPH,GustSpeedMaxMPH,PrecipitationSumIn
2013-3-1,50.4,45.8,37.6,37.0,33.3,31.0,90,63,52,30.10,30.01,7,2,11,0.00
2013-3-2,50.0,38.6,35.0,35.0,18.9,-99.9,91,58,43,30.13,30.04,7,-94,15,0.00
2013-3-3,49.5,40.1,33.3,30.0,25.6,-99.9,83,61,40,30.21,30.09,7,-19,13,0.00
2013-3-4,65.6,45.4,30.1,41.0,25.4,-99.9,95,57,26,30.27,30.14,6,-41,11,0.00
2013-3-5,70.7,58.9,44.6,61.0,52.6,41.0,97,80,66,30.16,29.95,15,3,20,0.08
2013-3-6,56.7,44.6,40.2,44.0,23.9,-99.9,85,54,35,30.23,30.07,11,-61,16,0.00
2013-3-7,63.8,46.4,33.4,38.0,34.3,31.0,92,67,32,30.33,30.21,6,1,8,0.00
2013-3-8,71.6,52.1,35.3,43.0,35.0,24.0,96,61,17,30.32,30.20,4,0,8,0.03
2013-3-9,71.7,54.2,40.4,47.0,35.9,-99.9,93,59,21,30.32,30.21,6,-62,12,0.00
2013-3-10,73.8,61.7,52.2,54.0,50.0,45.0,91,68,44,30.22,30.11,10,3,16,0.00
2013-3-11,71.3,60.7,51.3,62.0,56.5,50.0,96,86,68,30.12,29.86,12,3,19,0.13
2013-3-12,64.3,55.2,46.7,63.0,47.5,40.0,97,78,42,30.14,29.85,8,2,11,0.69
2013-3-13,67.0,54.4,40.8,43.0,34.7,26.0,90,54,26,30.29,30.14,7,1,15,0.00
2013-3-14,62.0,49.1,38.7,34.0,27.5,20.0,76,47,20,30.41,30.27,6,1,11,0.00
2013-3-15,74.4,56.3,38.3,44.0,37.1,30.0,89,54,25,30.33,30.16,9,1,13,0.00
2013-3-16,78.5,61.7,45.9,56.0,50.2,44.0,96,69,40,30.21,30.04,8,1,16,0.00
2013-3-17,70.2,61.2,53.5,64.0,58.5,53.0,99,91,74,30.11,30.04,9,1,11,0.19
2013-3-18,78.0,67.1,60.2,67.0,63.6,59.0,98,89,64,30.05,29.89,12,2,13,0.18
2013-3-19,76.4,64.1,57.1,63.0,58.8,55.0,99,85,55,30.08,29.93,6,0,12,0.67
2013-3-20,69.7,58.5,47.3,55.0,40.4,34.0,97,54,28,30.11,29.94,4,0,10,0.00
2013-3-21,64.5,51.6,40.3,40.0,32.4,22.0,84,54,21,30.06,29.95,11,1,13,0.00
2013-3-22,68.9,56.3,44.6,42.0,34.0,26.0,85,46,23,30.09,29.97,7,1,12,0.00
2013-3-23,62.7,58.4,54.3,62.0,53.6,40.0,99,85,51,30.01,29.78,6,1,10,1.12
2013-3-24,84.3,72.5,60.0,72.0,64.0,48.0,100,78,39,29.77,29.55,21,4,21,0.78
2013-3-25,62.2,52.6,42.8,47.0,30.9,22.0,66,46,24,30.15,29.77,17,4,17,0.00
2013-3-26,54.2,44.7,36.4,32.0,26.3,23.0,73,50,33,30.34,30.16,9,2,14,0.00
2013-3-27,60.4,45.3,33.0,35.0,29.5,24.0,86,59,25,30.42,30.29,11,1,12,0.00
2013-3-28,67.7,50.6,35.4,41.0,34.5,28.0,96,62,25,30.39,30.27,7,1,9,0.00
2013-3-29,74.9,57.3,40.1,49.0,40.3,34.0,97,61,23,30.38,30.22,8,1,13,0.00
2013-3-30,74.9,60.2,44.1,57.0,50.0,43.0,98,72,43,30.30,30.14,11,2,14,0.00
2013-3-31,77.6,66.6,59.9,66.0,60.4,51.0,94,81,58,30.16,29.98,11,3,18,0.02